Year,Month,Day,Hour,Minute,Value (Times are PST for windspeed in km/hr)
2017,05,26,00,00,0.00
2017,05,26,00,01,0.00
2017,05,26,00,02,0.80
2017,05,26,00,03,0.00
2017,05,26,00,04,0.00
2017,05,26,00,05,0.10
2017,05,26,00,06,2.60
2017,05,26,00,07,3.60
2017,05,26,00,08,3.80
2017,05,26,00,09,4.80
2017,05,26,00,10,4.30
2017,05,26,00,11,3.90
2017,05,26,00,12,2.70
2017,05,26,00,13,1.80
2017,05,26,00,14,3.10
2017,05,26,00,15,3.20
2017,05,26,00,16,0.50
2017,05,26,00,17,2.30
2017,05,26,00,18,0.00
2017,05,26,00,19,0.00
2017,05,26,00,20,1.80
2017,05,26,00,21,1.10
2017,05,26,00,22,1.90
2017,05,26,00,23,0.50
2017,05,26,00,24,0.20
2017,05,26,00,25,1.50
2017,05,26,00,26,1.40
2017,05,26,00,27,0.70
2017,05,26,00,28,0.20
2017,05,26,00,29,0.10
2017,05,26,00,30,0.40
2017,05,26,00,31,0.20
2017,05,26,00,32,0.00
2017,05,26,00,33,0.20
2017,05,26,00,34,0.00
2017,05,26,00,35,0.00
2017,05,26,00,36,0.00
2017,05,26,00,37,0.00
2017,05,26,00,38,0.00
2017,05,26,00,39,0.00
2017,05,26,00,40,0.00
2017,05,26,00,41,0.00
2017,05,26,00,42,0.00
2017,05,26,00,43,0.00
2017,05,26,00,44,0.00
2017,05,26,00,45,0.00
2017,05,26,00,46,0.00
2017,05,26,00,47,0.10
2017,05,26,00,48,1.30
2017,05,26,00,49,3.00
2017,05,26,00,50,1.40
2017,05,26,00,51,2.10
2017,05,26,00,52,2.60
2017,05,26,00,53,1.90
2017,05,26,00,54,3.30
2017,05,26,00,55,4.70
2017,05,26,00,56,4.70
2017,05,26,00,57,3.70
2017,05,26,00,58,3.00
2017,05,26,00,59,3.10
2017,05,26,01,00,3.10
2017,05,26,01,01,2.50
2017,05,26,01,02,0.50
2017,05,26,01,03,1.90
2017,05,26,01,04,2.30
2017,05,26,01,05,0.10
2017,05,26,01,06,0.00
2017,05,26,01,07,1.00
2017,05,26,01,08,0.50
2017,05,26,01,09,0.00
2017,05,26,01,10,0.00
2017,05,26,01,11,0.00
2017,05,26,01,12,1.40
2017,05,26,01,13,4.00
2017,05,26,01,14,5.00
2017,05,26,01,15,5.90
2017,05,26,01,16,2.50
2017,05,26,01,17,1.20
2017,05,26,01,18,2.80
2017,05,26,01,19,1.00
2017,05,26,01,20,0.00
2017,05,26,01,21,0.00
2017,05,26,01,22,0.00
2017,05,26,01,23,0.00
2017,05,26,01,24,0.00
2017,05,26,01,25,0.00
2017,05,26,01,26,0.10
2017,05,26,01,27,0.00
2017,05,26,01,28,0.00
2017,05,26,01,29,0.00
2017,05,26,01,30,0.00
2017,05,26,01,31,0.00
2017,05,26,01,32,0.10
2017,05,26,01,33,0.10
2017,05,26,01,34,0.00
2017,05,26,01,35,0.00
2017,05,26,01,36,0.00
2017,05,26,01,37,0.00
2017,05,26,01,38,0.10
2017,05,26,01,39,0.00
2017,05,26,01,40,1.40
2017,05,26,01,41,3.10
2017,05,26,01,42,4.30
2017,05,26,01,43,3.90
2017,05,26,01,44,3.60
2017,05,26,01,45,1.20
2017,05,26,01,46,0.10
2017,05,26,01,47,0.00
2017,05,26,01,48,2.50
2017,05,26,01,49,2.10
2017,05,26,01,50,0.00
2017,05,26,01,51,3.90
2017,05,26,01,52,3.60
2017,05,26,01,53,4.00
2017,05,26,01,54,4.50
2017,05,26,01,55,4.20
2017,05,26,01,56,3.00
2017,05,26,01,57,0.10
2017,05,26,01,58,2.30
2017,05,26,01,59,0.10
2017,05,26,02,00,1.80
2017,05,26,02,01,0.00
2017,05,26,02,02,0.00
2017,05,26,02,03,0.10
2017,05,26,02,04,0.00
2017,05,26,02,05,0.00
2017,05,26,02,06,2.50
2017,05,26,02,07,1.70
2017,05,26,02,08,2.50
2017,05,26,02,09,2.70
2017,05,26,02,10,1.70
2017,05,26,02,11,2.70
2017,05,26,02,12,1.90
2017,05,26,02,13,0.00
2017,05,26,02,14,1.40
2017,05,26,02,15,3.90
2017,05,26,02,16,1.40
2017,05,26,02,17,1.00
2017,05,26,02,18,1.60
2017,05,26,02,19,2.80
2017,05,26,02,20,2.50
2017,05,26,02,21,1.40
2017,05,26,02,22,0.80
2017,05,26,02,23,0.80
2017,05,26,02,24,0.00
2017,05,26,02,25,0.20
2017,05,26,02,26,0.00
2017,05,26,02,27,0.90
2017,05,26,02,28,2.40
2017,05,26,02,29,1.90
2017,05,26,02,30,0.40
2017,05,26,02,31,2.30
2017,05,26,02,32,3.30
2017,05,26,02,33,1.00
2017,05,26,02,34,3.10
2017,05,26,02,35,3.60
2017,05,26,02,36,4.50
2017,05,26,02,37,3.90
2017,05,26,02,38,3.60
2017,05,26,02,39,3.60
2017,05,26,02,40,3.10
2017,05,26,02,41,3.70
2017,05,26,02,42,4.20
2017,05,26,02,43,4.50
2017,05,26,02,44,4.90
2017,05,26,02,45,5.10
2017,05,26,02,46,3.70
2017,05,26,02,47,2.50
2017,05,26,02,48,1.90
2017,05,26,02,49,2.40
2017,05,26,02,50,2.80
2017,05,26,02,51,2.80
2017,05,26,02,52,2.90
2017,05,26,02,53,4.00
2017,05,26,02,54,3.50
2017,05,26,02,55,3.50
2017,05,26,02,56,2.90
2017,05,26,02,57,0.60
2017,05,26,02,58,1.40
2017,05,26,02,59,1.80
2017,05,26,03,00,0.00
2017,05,26,03,01,0.00
2017,05,26,03,02,0.00
2017,05,26,03,03,0.10
2017,05,26,03,04,0.00
2017,05,26,03,05,1.40
2017,05,26,03,06,1.90
2017,05,26,03,07,0.10
2017,05,26,03,08,0.00
2017,05,26,03,09,0.00
2017,05,26,03,10,0.00
2017,05,26,03,11,0.00
2017,05,26,03,12,0.00
2017,05,26,03,13,0.00
2017,05,26,03,14,0.00
2017,05,26,03,15,0.00
2017,05,26,03,16,0.00
2017,05,26,03,17,0.00
2017,05,26,03,18,0.10
2017,05,26,03,19,0.00
2017,05,26,03,20,1.00
2017,05,26,03,21,1.00
2017,05,26,03,22,0.00
2017,05,26,03,23,0.10
2017,05,26,03,24,0.00
2017,05,26,03,25,0.90
2017,05,26,03,26,3.10
2017,05,26,03,27,3.40
2017,05,26,03,28,4.00
2017,05,26,03,29,3.90
2017,05,26,03,30,3.10
2017,05,26,03,31,3.90
2017,05,26,03,32,3.10
2017,05,26,03,33,0.30
2017,05,26,03,34,0.00
2017,05,26,03,35,0.00
2017,05,26,03,36,0.00
2017,05,26,03,37,0.10
2017,05,26,03,38,0.00
2017,05,26,03,39,1.60
2017,05,26,03,40,1.60
2017,05,26,03,41,1.50
2017,05,26,03,42,3.00
2017,05,26,03,43,2.00
2017,05,26,03,44,0.70
2017,05,26,03,45,4.00
2017,05,26,03,46,3.90
2017,05,26,03,47,2.90
2017,05,26,03,48,2.90
2017,05,26,03,49,2.80
2017,05,26,03,50,1.10
2017,05,26,03,51,1.20
2017,05,26,03,52,2.00
2017,05,26,03,53,2.10
2017,05,26,03,54,2.80
2017,05,26,03,55,2.50
2017,05,26,03,56,2.70
2017,05,26,03,57,2.40
2017,05,26,03,58,0.80
2017,05,26,03,59,1.70
2017,05,26,04,00,1.90
2017,05,26,04,01,0.10
2017,05,26,04,02,0.00
2017,05,26,04,03,0.00
2017,05,26,04,04,1.00
2017,05,26,04,05,3.10
2017,05,26,04,06,1.20
2017,05,26,04,07,0.10
2017,05,26,04,08,0.00
2017,05,26,04,09,0.40
2017,05,26,04,10,2.60
2017,05,26,04,11,2.40
2017,05,26,04,12,1.30
2017,05,26,04,13,0.00
2017,05,26,04,14,0.10
2017,05,26,04,15,0.00
2017,05,26,04,16,0.00
2017,05,26,04,17,0.00
2017,05,26,04,18,1.90
2017,05,26,04,19,2.10
2017,05,26,04,20,2.20
2017,05,26,04,21,2.30
2017,05,26,04,22,1.70
2017,05,26,04,23,0.30
2017,05,26,04,24,1.00
2017,05,26,04,25,2.30
2017,05,26,04,26,0.60
2017,05,26,04,27,2.80
2017,05,26,04,28,2.60
2017,05,26,04,29,1.80
2017,05,26,04,30,1.40
2017,05,26,04,31,1.80
2017,05,26,04,32,2.60
2017,05,26,04,33,3.60
2017,05,26,04,34,3.30
2017,05,26,04,35,3.40
2017,05,26,04,36,3.60
2017,05,26,04,37,5.10
2017,05,26,04,38,4.70
2017,05,26,04,39,3.90
2017,05,26,04,40,5.30
2017,05,26,04,41,3.70
2017,05,26,04,42,5.00
2017,05,26,04,43,4.60
2017,05,26,04,44,5.10
2017,05,26,04,45,5.20
2017,05,26,04,46,4.80
2017,05,26,04,47,5.20
2017,05,26,04,48,5.20
2017,05,26,04,49,5.10
2017,05,26,04,50,4.20
2017,05,26,04,51,3.50
2017,05,26,04,52,4.30
2017,05,26,04,53,3.70
2017,05,26,04,54,1.40
2017,05,26,04,55,4.10
2017,05,26,04,56,5.10
2017,05,26,04,57,3.90
2017,05,26,04,58,3.40
2017,05,26,04,59,3.20
2017,05,26,05,00,2.80
2017,05,26,05,01,4.70
2017,05,26,05,02,3.00
2017,05,26,05,03,1.40
2017,05,26,05,04,1.70
2017,05,26,05,05,3.00
2017,05,26,05,06,2.00
2017,05,26,05,07,3.90
2017,05,26,05,08,1.70
2017,05,26,05,09,3.10
2017,05,26,05,10,4.40
2017,05,26,05,11,2.70
2017,05,26,05,12,3.80
2017,05,26,05,13,3.30
2017,05,26,05,14,3.30
2017,05,26,05,15,3.40
2017,05,26,05,16,2.80
2017,05,26,05,17,2.70
2017,05,26,05,18,3.80
2017,05,26,05,19,3.60
2017,05,26,05,20,4.00
2017,05,26,05,21,4.30
2017,05,26,05,22,4.30
2017,05,26,05,23,3.50
2017,05,26,05,24,3.90
2017,05,26,05,25,3.50
2017,05,26,05,26,2.60
2017,05,26,05,27,2.20
2017,05,26,05,28,3.40
2017,05,26,05,29,3.50
2017,05,26,05,30,3.60
2017,05,26,05,31,2.60
2017,05,26,05,32,1.00
2017,05,26,05,33,0.80
2017,05,26,05,34,1.80
2017,05,26,05,35,2.40
2017,05,26,05,36,2.90
2017,05,26,05,37,3.10
2017,05,26,05,38,4.60
2017,05,26,05,39,3.40
2017,05,26,05,40,3.80
2017,05,26,05,41,3.40
2017,05,26,05,42,4.50
2017,05,26,05,43,4.20
2017,05,26,05,44,4.90
2017,05,26,05,45,4.20
2017,05,26,05,46,4.40
2017,05,26,05,47,4.00
2017,05,26,05,48,4.50
2017,05,26,05,49,3.40
2017,05,26,05,50,5.30
2017,05,26,05,51,3.80
2017,05,26,05,52,3.40
2017,05,26,05,53,3.60
2017,05,26,05,54,2.80
2017,05,26,05,55,2.30
2017,05,26,05,56,1.00
2017,05,26,05,57,2.40
2017,05,26,05,58,0.50
2017,05,26,05,59,0.10
2017,05,26,06,00,1.70
2017,05,26,06,01,3.70
2017,05,26,06,02,3.10
2017,05,26,06,03,3.80
2017,05,26,06,04,3.40
2017,05,26,06,05,4.90
2017,05,26,06,06,4.70
2017,05,26,06,07,4.50
2017,05,26,06,08,3.70
2017,05,26,06,09,4.10
2017,05,26,06,10,3.90
2017,05,26,06,11,3.40
2017,05,26,06,12,3.90
2017,05,26,06,13,3.90
2017,05,26,06,14,3.40
2017,05,26,06,15,4.30
2017,05,26,06,16,5.80
2017,05,26,06,17,3.40
2017,05,26,06,18,4.30
2017,05,26,06,19,4.10
2017,05,26,06,20,4.10
2017,05,26,06,21,4.60
2017,05,26,06,22,3.10
2017,05,26,06,23,2.40
2017,05,26,06,24,4.70
2017,05,26,06,25,4.70
2017,05,26,06,26,3.50
2017,05,26,06,27,3.20
2017,05,26,06,28,3.10
2017,05,26,06,29,0.00
2017,05,26,06,30,0.10
2017,05,26,06,31,2.30
2017,05,26,06,32,3.00
2017,05,26,06,33,3.10
2017,05,26,06,34,0.20
2017,05,26,06,35,3.20
2017,05,26,06,36,3.20
2017,05,26,06,37,1.80
2017,05,26,06,38,0.00
2017,05,26,06,39,2.20
2017,05,26,06,40,2.30
2017,05,26,06,41,2.40
2017,05,26,06,42,3.40
2017,05,26,06,43,3.00
2017,05,26,06,44,3.20
2017,05,26,06,45,4.80
2017,05,26,06,46,4.90
2017,05,26,06,47,3.00
2017,05,26,06,48,1.00
2017,05,26,06,49,3.10
2017,05,26,06,50,4.20
2017,05,26,06,51,3.90
2017,05,26,06,52,2.70
2017,05,26,06,53,1.40
2017,05,26,06,54,4.30
2017,05,26,06,55,4.90
2017,05,26,06,56,4.60
2017,05,26,06,57,5.80
2017,05,26,06,58,5.50
2017,05,26,06,59,5.20
2017,05,26,07,00,4.70
2017,05,26,07,01,1.60
2017,05,26,07,02,3.50
2017,05,26,07,03,3.50
2017,05,26,07,04,3.00
2017,05,26,07,05,2.10
2017,05,26,07,06,1.80
2017,05,26,07,07,4.50
2017,05,26,07,08,0.20
2017,05,26,07,09,0.90
2017,05,26,07,10,2.20
2017,05,26,07,11,3.30
2017,05,26,07,12,1.50
2017,05,26,07,13,0.30
2017,05,26,07,14,3.70
2017,05,26,07,15,1.40
2017,05,26,07,16,0.20
2017,05,26,07,17,3.00
2017,05,26,07,18,1.80
2017,05,26,07,19,0.00
2017,05,26,07,20,0.00
2017,05,26,07,21,0.00
2017,05,26,07,22,2.10
2017,05,26,07,23,0.90
2017,05,26,07,24,0.00
2017,05,26,07,25,0.10
2017,05,26,07,26,0.00
2017,05,26,07,27,0.00
2017,05,26,07,28,0.00
2017,05,26,07,29,0.00
2017,05,26,07,30,0.90
2017,05,26,07,31,0.20
2017,05,26,07,32,0.00
2017,05,26,07,33,0.00
2017,05,26,07,34,0.70
2017,05,26,07,35,0.20
2017,05,26,07,36,1.20
2017,05,26,07,37,0.10
2017,05,26,07,38,0.10
2017,05,26,07,39,1.90
2017,05,26,07,40,2.20
2017,05,26,07,41,0.00
2017,05,26,07,42,0.30
2017,05,26,07,43,2.50
2017,05,26,07,44,0.00
2017,05,26,07,45,0.10
2017,05,26,07,46,0.00
2017,05,26,07,47,2.50
2017,05,26,07,48,0.00
2017,05,26,07,49,0.00
2017,05,26,07,50,2.50
2017,05,26,07,51,1.70
2017,05,26,07,52,1.80
2017,05,26,07,53,3.60
2017,05,26,07,54,3.10
2017,05,26,07,55,1.80
2017,05,26,07,56,3.60
2017,05,26,07,57,0.90
2017,05,26,07,58,2.60
2017,05,26,07,59,3.20
2017,05,26,08,00,1.90
2017,05,26,08,01,0.00
2017,05,26,08,02,0.00
2017,05,26,08,03,0.80
2017,05,26,08,04,0.00
2017,05,26,08,05,0.20
2017,05,26,08,06,1.10
2017,05,26,08,07,1.80
2017,05,26,08,08,2.10
2017,05,26,08,09,3.50
2017,05,26,08,10,4.10
2017,05,26,08,11,1.80
2017,05,26,08,12,4.70
2017,05,26,08,13,6.20
2017,05,26,08,14,4.00
2017,05,26,08,15,5.50
2017,05,26,08,16,5.30
2017,05,26,08,17,6.70
2017,05,26,08,18,5.20
2017,05,26,08,19,6.40
2017,05,26,08,20,6.10
2017,05,26,08,21,7.20
2017,05,26,08,22,7.10
2017,05,26,08,23,3.00
2017,05,26,08,24,1.70
2017,05,26,08,25,5.90
2017,05,26,08,26,8.60
2017,05,26,08,27,7.70
2017,05,26,08,28,6.30
2017,05,26,08,29,9.10
2017,05,26,08,30,8.90
2017,05,26,08,31,8.40
2017,05,26,08,32,4.10
2017,05,26,08,33,10.10
2017,05,26,08,34,8.90
2017,05,26,08,35,14.30
2017,05,26,08,36,12.90
2017,05,26,08,37,11.60
2017,05,26,08,38,7.20
2017,05,26,08,39,8.40
2017,05,26,08,40,6.10
2017,05,26,08,41,8.60
2017,05,26,08,42,5.20
2017,05,26,08,43,8.00
2017,05,26,08,44,7.90
2017,05,26,08,45,13.90
2017,05,26,08,46,9.90
2017,05,26,08,47,11.90
2017,05,26,08,48,8.70
2017,05,26,08,49,13.20
2017,05,26,08,50,9.70
2017,05,26,08,51,6.40
2017,05,26,08,52,6.60
2017,05,26,08,53,10.40
2017,05,26,08,54,14.60
2017,05,26,08,55,9.10
2017,05,26,08,56,6.70
2017,05,26,08,57,4.40
2017,05,26,08,58,9.50
2017,05,26,08,59,8.70
2017,05,26,09,00,10.50
2017,05,26,09,01,10.60
2017,05,26,09,02,10.50
2017,05,26,09,03,11.40
2017,05,26,09,04,16.70
2017,05,26,09,05,14.30
2017,05,26,09,06,16.50
2017,05,26,09,07,9.30
2017,05,26,09,08,10.10
2017,05,26,09,09,7.40
2017,05,26,09,10,10.10
2017,05,26,09,11,16.20
2017,05,26,09,12,12.80
2017,05,26,09,13,8.60
2017,05,26,09,14,10.70
2017,05,26,09,15,7.00
2017,05,26,09,16,8.40
2017,05,26,09,17,10.90
2017,05,26,09,18,7.40
2017,05,26,09,19,8.70
2017,05,26,09,20,9.00
2017,05,26,09,21,9.70
2017,05,26,09,22,13.50
2017,05,26,09,23,8.10
2017,05,26,09,24,5.30
2017,05,26,09,25,3.10
2017,05,26,09,26,12.50
2017,05,26,09,27,8.40
2017,05,26,09,28,8.70
2017,05,26,09,29,10.10
2017,05,26,09,30,5.40
2017,05,26,09,31,6.90
2017,05,26,09,32,6.40
2017,05,26,09,33,2.70
2017,05,26,09,34,2.50
2017,05,26,09,35,14.10
2017,05,26,09,36,11.30
2017,05,26,09,37,10.50
2017,05,26,09,38,8.20
2017,05,26,09,39,8.30
2017,05,26,09,40,8.00
2017,05,26,09,41,7.30
2017,05,26,09,42,7.10
2017,05,26,09,43,14.60
2017,05,26,09,44,13.10
2017,05,26,09,45,8.00
2017,05,26,09,46,10.40
2017,05,26,09,47,11.80
2017,05,26,09,48,12.90
2017,05,26,09,49,12.80
2017,05,26,09,50,10.00
2017,05,26,09,51,3.40
2017,05,26,09,52,5.50
2017,05,26,09,53,12.60
2017,05,26,09,54,10.10
2017,05,26,09,55,6.50
2017,05,26,09,56,6.80
2017,05,26,09,57,7.10
2017,05,26,09,58,4.40
2017,05,26,09,59,4.10
2017,05,26,10,00,6.10
2017,05,26,10,01,8.60
2017,05,26,10,02,14.20
2017,05,26,10,03,10.30
2017,05,26,10,04,10.90
2017,05,26,10,05,16.70
2017,05,26,10,06,14.90
2017,05,26,10,07,12.50
2017,05,26,10,08,10.30
2017,05,26,10,09,16.70
2017,05,26,10,10,16.30
2017,05,26,10,11,7.60
2017,05,26,10,12,16.30
2017,05,26,10,13,8.80
2017,05,26,10,14,14.20
2017,05,26,10,15,11.50
2017,05,26,10,16,9.50
2017,05,26,10,17,6.80
2017,05,26,10,18,9.30
2017,05,26,10,19,11.70
2017,05,26,10,20,13.40
2017,05,26,10,21,13.60
2017,05,26,10,22,14.70
2017,05,26,10,23,11.60
2017,05,26,10,24,10.30
2017,05,26,10,25,10.50
2017,05,26,10,26,7.50
2017,05,26,10,27,11.70
2017,05,26,10,28,9.30
2017,05,26,10,29,9.40
2017,05,26,10,30,13.20
2017,05,26,10,31,11.80
2017,05,26,10,32,15.00
2017,05,26,10,33,11.40
2017,05,26,10,34,13.80
2017,05,26,10,35,11.80
2017,05,26,10,36,9.20
2017,05,26,10,37,11.40
2017,05,26,10,38,11.70
2017,05,26,10,39,14.60
2017,05,26,10,40,11.70
2017,05,26,10,41,14.30
2017,05,26,10,42,11.20
2017,05,26,10,43,15.90
2017,05,26,10,44,16.70
2017,05,26,10,45,18.80
2017,05,26,10,46,16.00
2017,05,26,10,47,15.10
2017,05,26,10,48,11.30
2017,05,26,10,49,13.10
2017,05,26,10,50,11.60
2017,05,26,10,51,7.10
2017,05,26,10,52,8.60
2017,05,26,10,53,3.80
2017,05,26,10,54,5.50
2017,05,26,10,55,5.80
2017,05,26,10,56,6.00
2017,05,26,10,57,3.10
2017,05,26,10,58,5.20
2017,05,26,10,59,4.90
2017,05,26,11,00,1.30
2017,05,26,11,01,2.50
2017,05,26,11,02,6.40
2017,05,26,11,03,9.50
2017,05,26,11,04,9.50
2017,05,26,11,05,8.90
2017,05,26,11,06,14.50
2017,05,26,11,07,11.80
2017,05,26,11,08,11.50
2017,05,26,11,09,7.80
2017,05,26,11,10,13.00
2017,05,26,11,11,12.20
2017,05,26,11,12,12.10
2017,05,26,11,13,5.20
2017,05,26,11,14,8.10
2017,05,26,11,15,10.30
2017,05,26,11,16,10.30
2017,05,26,11,17,11.80
2017,05,26,11,18,11.00
2017,05,26,11,19,10.30
2017,05,26,11,20,9.00
2017,05,26,11,21,10.80
2017,05,26,11,22,10.50
2017,05,26,11,23,7.30
2017,05,26,11,24,8.00
2017,05,26,11,25,9.10
2017,05,26,11,26,10.40
2017,05,26,11,27,6.70
2017,05,26,11,28,8.60
2017,05,26,11,29,2.30
2017,05,26,11,30,6.20
2017,05,26,11,31,7.20
2017,05,26,11,32,9.10
2017,05,26,11,33,6.10
2017,05,26,11,34,5.80
2017,05,26,11,35,9.00
2017,05,26,11,36,10.60
2017,05,26,11,37,8.10
2017,05,26,11,38,10.30
2017,05,26,11,39,5.00
2017,05,26,11,40,6.80
2017,05,26,11,41,8.00
2017,05,26,11,42,6.90
2017,05,26,11,43,6.10
2017,05,26,11,44,5.90
2017,05,26,11,45,2.70
2017,05,26,11,46,4.30
2017,05,26,11,47,4.50
2017,05,26,11,48,5.80
2017,05,26,11,49,6.70
2017,05,26,11,50,7.10
2017,05,26,11,51,3.50
2017,05,26,11,52,3.10
2017,05,26,11,53,3.20
2017,05,26,11,54,3.90
2017,05,26,11,55,0.80
2017,05,26,11,56,3.40
2017,05,26,11,57,7.80
2017,05,26,11,58,3.30
2017,05,26,11,59,1.00
2017,05,26,12,00,4.40
2017,05,26,12,01,5.40
2017,05,26,12,02,5.50
2017,05,26,12,03,10.30
2017,05,26,12,04,10.40
2017,05,26,12,05,10.00
2017,05,26,12,06,5.80
2017,05,26,12,07,3.60
2017,05,26,12,08,2.80
2017,05,26,12,09,5.90
2017,05,26,12,10,3.60
2017,05,26,12,11,6.30
2017,05,26,12,12,3.00
2017,05,26,12,13,4.50
2017,05,26,12,14,3.40
2017,05,26,12,15,2.90
2017,05,26,12,16,5.40
2017,05,26,12,17,6.60
2017,05,26,12,18,6.50
2017,05,26,12,19,5.10
2017,05,26,12,20,4.70
2017,05,26,12,21,4.70
2017,05,26,12,22,3.90
2017,05,26,12,23,3.00
2017,05,26,12,24,2.20
2017,05,26,12,25,1.60
2017,05,26,12,26,2.80
2017,05,26,12,27,1.60
2017,05,26,12,28,4.00
2017,05,26,12,29,3.60
2017,05,26,12,30,10.30
2017,05,26,12,31,11.90
2017,05,26,12,32,7.40
2017,05,26,12,33,6.80
2017,05,26,12,34,7.80
2017,05,26,12,35,3.80
2017,05,26,12,36,4.30
2017,05,26,12,37,4.40
2017,05,26,12,38,7.40
2017,05,26,12,39,2.20
2017,05,26,12,40,2.40
2017,05,26,12,41,4.90
2017,05,26,12,42,1.50
2017,05,26,12,43,4.40
2017,05,26,12,44,0.50
2017,05,26,12,45,2.80
2017,05,26,12,46,4.10
2017,05,26,12,47,6.40
2017,05,26,12,48,8.10
2017,05,26,12,49,6.40
2017,05,26,12,50,4.10
2017,05,26,12,51,6.40
2017,05,26,12,52,5.50
2017,05,26,12,53,7.20
2017,05,26,12,54,6.70
2017,05,26,12,55,7.00
2017,05,26,12,56,3.80
2017,05,26,12,57,6.90
2017,05,26,12,58,6.30
2017,05,26,12,59,7.10
2017,05,26,13,00,5.90
2017,05,26,13,01,8.50
2017,05,26,13,02,3.10
2017,05,26,13,03,0.20
2017,05,26,13,04,6.40
2017,05,26,13,05,7.60
2017,05,26,13,06,4.20
2017,05,26,13,07,4.80
2017,05,26,13,08,7.50
2017,05,26,13,09,10.70
2017,05,26,13,10,8.90
2017,05,26,13,11,5.00
2017,05,26,13,12,4.00
2017,05,26,13,13,7.10
2017,05,26,13,14,3.80
2017,05,26,13,15,5.60
2017,05,26,13,16,5.40
2017,05,26,13,17,2.00
2017,05,26,13,18,3.60
2017,05,26,13,19,8.50
2017,05,26,13,20,5.20
2017,05,26,13,21,6.40
2017,05,26,13,22,6.30
2017,05,26,13,23,4.60
2017,05,26,13,24,1.70
2017,05,26,13,25,8.30
2017,05,26,13,26,4.70
2017,05,26,13,27,5.60
2017,05,26,13,28,7.30
2017,05,26,13,29,9.60
2017,05,26,13,30,5.60
2017,05,26,13,31,5.80
2017,05,26,13,32,6.70
2017,05,26,13,33,3.20
2017,05,26,13,34,6.90
2017,05,26,13,35,6.70
2017,05,26,13,36,6.30
2017,05,26,13,37,7.30
2017,05,26,13,38,6.60
2017,05,26,13,39,7.60
2017,05,26,13,40,7.20
2017,05,26,13,41,6.50
2017,05,26,13,42,7.40
2017,05,26,13,43,12.20
2017,05,26,13,44,7.20
2017,05,26,13,45,1.00
2017,05,26,13,46,4.80
2017,05,26,13,47,4.10
2017,05,26,13,48,6.50
2017,05,26,13,49,5.60
2017,05,26,13,50,5.80
2017,05,26,13,51,6.00
2017,05,26,13,52,4.50
2017,05,26,13,53,5.40
2017,05,26,13,54,5.20
2017,05,26,13,55,6.00
2017,05,26,13,56,6.20
2017,05,26,13,57,7.20
2017,05,26,13,58,7.90
2017,05,26,13,59,6.90
2017,05,26,14,00,5.60
2017,05,26,14,01,6.10
2017,05,26,14,02,4.20
2017,05,26,14,03,8.50
2017,05,26,14,04,5.20
2017,05,26,14,05,8.30
2017,05,26,14,06,8.50
2017,05,26,14,07,7.20
2017,05,26,14,08,9.10
2017,05,26,14,09,8.50
2017,05,26,14,10,1.10
2017,05,26,14,11,4.50
2017,05,26,14,12,0.70
2017,05,26,14,13,4.70
2017,05,26,14,14,4.80
2017,05,26,14,15,3.10
2017,05,26,14,16,9.10
2017,05,26,14,17,2.30
2017,05,26,14,18,2.80
2017,05,26,14,19,6.10
2017,05,26,14,20,3.20
2017,05,26,14,21,1.50
2017,05,26,14,22,2.70
2017,05,26,14,23,4.50
2017,05,26,14,24,0.60
2017,05,26,14,25,4.60
2017,05,26,14,26,4.10
2017,05,26,14,27,1.40
2017,05,26,14,28,2.60
2017,05,26,14,29,0.90
2017,05,26,14,30,6.10
2017,05,26,14,31,1.20
2017,05,26,14,32,4.70
2017,05,26,14,33,1.20
2017,05,26,14,34,3.60
2017,05,26,14,35,3.80
2017,05,26,14,36,3.40
2017,05,26,14,37,6.60
2017,05,26,14,38,2.30
2017,05,26,14,39,3.60
2017,05,26,14,40,5.80
2017,05,26,14,41,1.00
2017,05,26,14,42,1.30
2017,05,26,14,43,0.60
2017,05,26,14,44,0.70
2017,05,26,14,45,0.80
2017,05,26,14,46,0.30
2017,05,26,14,47,2.80
2017,05,26,14,48,1.40
2017,05,26,14,49,0.40
2017,05,26,14,50,0.20
2017,05,26,14,51,2.20
2017,05,26,14,52,2.30
2017,05,26,14,53,3.50
2017,05,26,14,54,6.50
2017,05,26,14,55,3.50
2017,05,26,14,56,6.50
2017,05,26,14,57,5.30
2017,05,26,14,58,1.40
2017,05,26,14,59,4.50
2017,05,26,15,00,0.80
2017,05,26,15,01,6.80
2017,05,26,15,02,3.70
2017,05,26,15,03,5.00
2017,05,26,15,04,5.60
2017,05,26,15,05,5.50
2017,05,26,15,06,4.30
2017,05,26,15,07,7.90
2017,05,26,15,08,7.30
2017,05,26,15,09,5.00
2017,05,26,15,10,4.30
2017,05,26,15,11,5.60
2017,05,26,15,12,5.10
2017,05,26,15,13,0.60
2017,05,26,15,14,2.10
2017,05,26,15,15,1.00
2017,05,26,15,16,4.70
2017,05,26,15,17,5.30
2017,05,26,15,18,5.80
2017,05,26,15,19,8.40
2017,05,26,15,20,6.10
2017,05,26,15,21,7.10
2017,05,26,15,22,4.60
2017,05,26,15,23,5.20
2017,05,26,15,24,5.60
2017,05,26,15,25,9.70
2017,05,26,15,26,6.80
2017,05,26,15,27,1.80
2017,05,26,15,28,8.30
2017,05,26,15,29,6.10
2017,05,26,15,30,4.90
2017,05,26,15,31,0.20
2017,05,26,15,32,1.00
2017,05,26,15,33,1.40
2017,05,26,15,34,3.40
2017,05,26,15,35,3.10
2017,05,26,15,36,3.10
2017,05,26,15,37,2.50
2017,05,26,15,38,5.40
2017,05,26,15,39,2.10
2017,05,26,15,40,1.50
2017,05,26,15,41,4.90
2017,05,26,15,42,7.10
2017,05,26,15,43,2.10
2017,05,26,15,44,6.00
2017,05,26,15,45,6.00
2017,05,26,15,46,4.40
2017,05,26,15,47,4.30
2017,05,26,15,48,2.30
2017,05,26,15,49,2.90
2017,05,26,15,50,5.60
2017,05,26,15,51,3.00
2017,05,26,15,52,1.80
2017,05,26,15,53,1.90
2017,05,26,15,54,0.20
2017,05,26,15,55,0.00
2017,05,26,15,56,0.80
2017,05,26,15,57,2.30
2017,05,26,15,58,7.90
2017,05,26,15,59,0.70
2017,05,26,16,00,0.10
2017,05,26,16,01,5.30
2017,05,26,16,02,7.20
2017,05,26,16,03,8.50
2017,05,26,16,04,5.50
2017,05,26,16,05,3.80
2017,05,26,16,06,3.10
2017,05,26,16,07,7.80
2017,05,26,16,08,8.20
2017,05,26,16,09,0.80
2017,05,26,16,10,4.60
2017,05,26,16,11,0.10
2017,05,26,16,12,5.60
2017,05,26,16,13,6.80
2017,05,26,16,14,5.70
2017,05,26,16,15,5.00
2017,05,26,16,16,4.80
2017,05,26,16,17,0.30
2017,05,26,16,18,6.10
2017,05,26,16,19,2.60
2017,05,26,16,20,0.10
2017,05,26,16,21,0.90
2017,05,26,16,22,0.30
2017,05,26,16,23,0.20
2017,05,26,16,24,2.50
2017,05,26,16,25,0.60
2017,05,26,16,26,0.40
2017,05,26,16,27,1.50
2017,05,26,16,28,0.10
2017,05,26,16,29,3.10
2017,05,26,16,30,4.70
2017,05,26,16,31,4.00
2017,05,26,16,32,6.70
2017,05,26,16,33,3.00
2017,05,26,16,34,1.10
2017,05,26,16,35,4.50
2017,05,26,16,36,6.20
2017,05,26,16,37,3.40
2017,05,26,16,38,4.20
2017,05,26,16,39,5.40
2017,05,26,16,40,4.40
2017,05,26,16,41,8.60
2017,05,26,16,42,1.90
2017,05,26,16,43,5.60
2017,05,26,16,44,12.10
2017,05,26,16,45,2.30
2017,05,26,16,46,8.10
2017,05,26,16,47,5.80
2017,05,26,16,48,3.40
2017,05,26,16,49,8.20
2017,05,26,16,50,5.50
2017,05,26,16,51,4.20
2017,05,26,16,52,9.30
2017,05,26,16,53,10.10
2017,05,26,16,54,4.40
2017,05,26,16,55,7.40
2017,05,26,16,56,4.20
2017,05,26,16,57,5.40
2017,05,26,16,58,7.20
2017,05,26,16,59,10.40
2017,05,26,17,00,4.20
2017,05,26,17,01,10.50
2017,05,26,17,02,6.60
2017,05,26,17,03,5.50
2017,05,26,17,04,3.20
2017,05,26,17,05,4.50
2017,05,26,17,06,3.30
2017,05,26,17,07,4.30
2017,05,26,17,08,5.00
2017,05,26,17,09,6.80
2017,05,26,17,10,3.80
2017,05,26,17,11,3.90
2017,05,26,17,12,1.70
2017,05,26,17,13,3.90
2017,05,26,17,14,3.50
2017,05,26,17,15,0.60
2017,05,26,17,16,2.10
2017,05,26,17,17,3.40
2017,05,26,17,18,8.10
2017,05,26,17,19,8.90
2017,05,26,17,20,11.00
2017,05,26,17,21,9.70
2017,05,26,17,22,4.70
2017,05,26,17,23,6.90
2017,05,26,17,24,13.70
2017,05,26,17,25,7.50
2017,05,26,17,26,6.60
2017,05,26,17,27,9.70
2017,05,26,17,28,7.60
2017,05,26,17,29,4.20
2017,05,26,17,30,3.90
2017,05,26,17,31,3.90
2017,05,26,17,32,2.90
2017,05,26,17,33,13.80
2017,05,26,17,34,13.10
2017,05,26,17,35,10.60
2017,05,26,17,36,14.70
2017,05,26,17,37,12.10
2017,05,26,17,38,9.30
2017,05,26,17,39,6.50
2017,05,26,17,40,9.30
2017,05,26,17,41,1.90
2017,05,26,17,42,0.40
2017,05,26,17,43,4.00
2017,05,26,17,44,1.40
2017,05,26,17,45,7.70
2017,05,26,17,46,7.20
2017,05,26,17,47,3.50
2017,05,26,17,48,3.50
2017,05,26,17,49,4.50
2017,05,26,17,50,5.30
2017,05,26,17,51,10.10
2017,05,26,17,52,4.80
2017,05,26,17,53,14.70
2017,05,26,17,54,7.70
2017,05,26,17,55,3.90
2017,05,26,17,56,4.90
2017,05,26,17,57,5.20
2017,05,26,17,58,4.00
2017,05,26,17,59,8.10
2017,05,26,18,00,4.80
2017,05,26,18,01,8.70